Le nostre stazioni meteo in Italia

Pubblicità
Il mio iltempo24.it
Lamezia Terme, Italia (16362): Temperatura & dewpoint: 31.05.2020 10:00:00 - 06.06.2020 10:00:00 (CEST)Lamezia Terme, Italia (16362): velocità del vento: 31.05.2020 10:00:00 - 06.06.2020 10:00:00 (CEST)Lamezia Terme, Italia (16362): direzione del vento: 31.05.2020 10:00:00 - 06.06.2020 10:00:00 (CEST)Lamezia Terme, Italia (16362): reduced air pressure: 31.05.2020 10:00:00 - 06.06.2020 10:00:00 (CEST)Lamezia Terme, Italia (16362): visibility: 31.05.2020 10:00:00 - 06.06.2020 10:00:00 (CEST)Lamezia Terme, Italia (16362): precipitazioni: 31.05.2020 10:00:00 - 06.06.2020 10:00:00 (CEST)
Data & Tempo tt [°C] td [°C] ff [km/h] ff [kn] dd ppp [hPa] vv [km] rr [mm]
06.06.2020 10:00:00 21,0 20,0 26 14 O - 10 -
06.06.2020 09:00:00 19,0 19,0 28 15 O - 7 -
06.06.2020 08:00:00 18,9 18,1 41 22 O 1006,3 10 -
06.06.2020 07:00:00 19,0 18,0 35 19 O - 10 -
06.06.2020 06:00:00 19,0 18,0 41 22 O - 10 -
06.06.2020 05:00:00 19,4 16,4 44 24 O 1004,1 10 0,0
06.06.2020 04:00:00 20,0 15,0 44 24 O - 10 -
06.06.2020 03:00:00 19,0 16,0 39 21 O - 10 -
06.06.2020 02:00:00 19,2 16,3 41 22 O 1004,0 10 -
06.06.2020 01:00:00 19,0 17,0 39 21 O - 10 -
06.06.2020 00:00:00 18,0 17,0 34 18 O - 10 -
05.06.2020 23:00:00 17,7 16,9 28 15 O 1004,4 10 0,0
05.06.2020 22:00:00 18,0 17,0 29 16 O - 10 -
05.06.2020 21:00:00 17,0 17,0 15 8 O - 10 -
05.06.2020 20:00:00 16,6 16,6 13 7 SO 1003,4 9 -
05.06.2020 19:00:00 16,0 16,0 9 5 SO - 10 -
05.06.2020 18:00:00 16,0 16,0 18 10 SSE - 10 -
05.06.2020 17:00:00 19,4 19,1 9 5 N 1002,8 10 0,0
05.06.2020 16:00:00 20,0 19,0 5 3 NNE - 7 -
05.06.2020 15:00:00 21,0 19,0 13 7 ENE - 10 -
05.06.2020 14:00:00 21,0 17,9 22 12 ENE 1004,9 10 -
05.06.2020 13:00:00 22,0 20,0 16 9 ENE - 10 -
05.06.2020 12:00:00 21,0 19,0 21 11 ENE - 10 -
05.06.2020 11:00:00 22,2 17,9 35 19 NE 1006,0 10 0,0
05.06.2020 10:00:00 23,0 18,0 35 19 ENE - 10 -
05.06.2020 09:00:00 21,0 18,0 34 18 ENE - 10 -
05.06.2020 08:00:00 19,8 18,5 22 12 NE 1007,3 10 -
05.06.2020 07:00:00 19,0 18,0 18 10 ENE - 10 -
05.06.2020 06:00:00 18,0 18,0 11 6 ESE - 10 -
05.06.2020 05:00:00 18,9 17,6 9 5 NNE 1009,5 10 0,0
05.06.2020 04:00:00 20,0 17,0 5 3 - - 10 -
05.06.2020 03:00:00 20,0 17,0 22 12 ENE - 10 -
05.06.2020 02:00:00 19,8 16,7 22 12 ENE 1008,4 10 -
05.06.2020 01:00:00 20,0 17,0 24 13 ENE - 10 -
05.06.2020 00:00:00 20,0 17,0 24 13 E - 10 -
04.06.2020 23:00:00 20,1 16,5 26 14 E 1009,0 10 0,0
04.06.2020 22:00:00 20,0 16,0 24 13 ENE - 10 -
04.06.2020 21:00:00 21,0 16,0 21 11 ENE - 10 -
04.06.2020 20:00:00 22,8 15,9 22 12 E 1008,2 10 -
04.06.2020 19:00:00 25,0 16,0 22 12 E - 10 -
04.06.2020 18:00:00 26,0 15,0 22 12 E - 10 -
04.06.2020 17:00:00 27,4 14,2 18 10 E 1008,6 10 0,0
04.06.2020 16:00:00 27,0 13,0 15 8 O - 10 -
04.06.2020 15:00:00 29,0 14,0 11 6 - - 10 -
04.06.2020 14:00:00 29,5 10,1 16 9 O 1009,3 10 -
04.06.2020 13:00:00 29,0 10,0 15 8 O - 10 -
04.06.2020 12:00:00 28,0 10,0 5 3 - - 10 -
04.06.2020 11:00:00 27,0 11,3 11 6 O 1010,5 10 0,0
04.06.2020 10:00:00 25,0 11,0 5 3 ESE - 10 -
04.06.2020 09:00:00 24,0 13,0 5 3 ENE - 10 -
04.06.2020 08:00:00 19,1 13,5 11 6 ENE 1010,6 10 -
04.06.2020 07:00:00 15,0 13,0 9 5 ENE - 10 -
04.06.2020 06:00:00 12,0 11,0 11 6 ENE - 10 -
04.06.2020 05:00:00 12,2 12,0 11 6 ENE 1010,3 10 0,0
04.06.2020 04:00:00 12,0 12,0 9 5 E - 10 -
04.06.2020 03:00:00 13,0 13,0 11 6 ENE - 10 -
04.06.2020 02:00:00 13,1 12,9 9 5 E 1011,8 10 -
04.06.2020 01:00:00 14,0 14,0 8 4 NE - 10 -
04.06.2020 00:00:00 15,0 14,0 8 4 ENE - 10 -
03.06.2020 23:00:00 16,6 14,5 2 1 - 1012,6 10 0,0
03.06.2020 22:00:00 18,0 16,0 5 3 SO - 10 -
03.06.2020 21:00:00 19,0 16,0 5 3 SSO - 10 -
03.06.2020 20:00:00 20,6 16,0 8 4 SO 1011,6 10 -
03.06.2020 19:00:00 22,0 16,0 15 8 SO - 10 -
03.06.2020 18:00:00 22,0 17,0 16 9 OSO - 10 -
03.06.2020 17:00:00 23,2 16,5 18 10 OSO 1012,1 10 0,0
03.06.2020 16:00:00 23,0 16,0 22 12 OSO - 10 -
03.06.2020 15:00:00 24,0 16,0 21 11 OSO - 10 -
03.06.2020 14:00:00 23,6 17,3 24 13 OSO 1012,2 10 -
03.06.2020 13:00:00 24,0 17,0 24 13 OSO - 10 -
03.06.2020 12:00:00 23,0 17,0 18 10 OSO - 10 -
03.06.2020 11:00:00 22,2 16,2 18 10 OSO 1013,0 10 0,0
03.06.2020 10:00:00 22,0 16,0 15 8 SO - 10 -
03.06.2020 09:00:00 22,0 16,0 11 6 SSO - 10 -
03.06.2020 08:00:00 20,8 15,9 8 4 SO 1012,7 10 -
03.06.2020 07:00:00 - - - - - - - -
03.06.2020 06:00:00 17,0 13,0 2 1 - - 10 -
03.06.2020 05:00:00 16,9 13,7 4 2 - 1011,8 10 0,0
03.06.2020 04:00:00 17,0 14,0 2 1 - - 10 -
03.06.2020 03:00:00 18,0 14,0 2 1 - - 10 -
03.06.2020 02:00:00 18,5 14,1 5 3 SSO 1012,9 10 -
03.06.2020 01:00:00 19,0 14,0 8 4 SSO - 10 -
03.06.2020 00:00:00 18,0 14,0 8 4 S - 10 -
02.06.2020 23:00:00 19,3 14,6 9 5 SO 1013,3 10 0,0
02.06.2020 22:00:00 19,0 14,0 9 5 SO - 10 -
02.06.2020 21:00:00 20,0 15,0 15 8 OSO - 10 -
02.06.2020 20:00:00 19,9 14,3 15 8 OSO 1013,1 10 -
02.06.2020 19:00:00 20,0 14,0 16 9 OSO - 10 -
02.06.2020 18:00:00 22,0 14,0 21 11 OSO - 10 -
02.06.2020 17:00:00 22,4 13,6 22 12 OSO 1013,5 10 0,0
02.06.2020 16:00:00 23,0 13,0 28 15 O - 10 -
02.06.2020 15:00:00 23,0 13,0 28 15 O - 10 -
02.06.2020 14:00:00 23,3 12,6 28 15 OSO 1014,5 10 -
02.06.2020 13:00:00 23,0 13,0 28 15 OSO - 10 -
02.06.2020 12:00:00 23,0 14,0 24 13 OSO - 10 -
02.06.2020 11:00:00 22,3 13,0 21 11 SO 1014,7 10 0,0
02.06.2020 10:00:00 22,0 12,0 15 8 SO - 10 -
02.06.2020 09:00:00 21,0 14,0 8 4 OSO - 10 -
02.06.2020 08:00:00 17,6 12,6 5 3 ENE 1014,9 10 -
02.06.2020 07:00:00 14,0 13,0 5 3 ENE - 10 -
02.06.2020 06:00:00 11,0 11,0 9 5 ENE - 10 -
02.06.2020 05:00:00 11,0 11,0 9 5 E 1014,2 10 0,0
02.06.2020 04:00:00 12,0 12,0 9 5 ESE - 10 -
02.06.2020 03:00:00 12,0 12,0 9 5 ENE - 10 -
02.06.2020 02:00:00 12,9 12,7 9 5 ENE 1015,3 10 -
02.06.2020 01:00:00 14,0 13,0 5 3 ENE - 10 -
02.06.2020 00:00:00 15,0 13,0 4 2 - - 10 -
01.06.2020 23:00:00 15,5 13,5 2 1 - 1015,5 10 0,0
01.06.2020 22:00:00 17,0 14,0 4 2 - - 10 -
01.06.2020 21:00:00 19,0 14,0 13 7 OSO - 10 -
01.06.2020 20:00:00 19,2 13,3 18 10 OSO 1014,1 10 -
01.06.2020 19:00:00 20,0 14,0 24 13 O - 10 -
01.06.2020 18:00:00 21,0 13,0 22 12 O - 10 -
01.06.2020 17:00:00 21,6 13,5 26 14 O 1014,9 10 0,0
01.06.2020 16:00:00 22,0 14,0 22 12 OSO - 10 -
01.06.2020 15:00:00 22,0 14,0 21 11 OSO - 10 -
01.06.2020 14:00:00 22,2 14,3 15 8 OSO 1015,5 10 -
01.06.2020 13:00:00 22,0 13,0 15 8 OSO - 10 -
01.06.2020 12:00:00 22,0 13,0 11 6 SO - 10 -
01.06.2020 11:00:00 19,4 14,3 8 4 S 1015,6 10 0,0
01.06.2020 10:00:00 18,0 16,0 5 3 NE - 10 -
01.06.2020 09:00:00 16,0 15,0 5 3 SE - 10 -
01.06.2020 08:00:00 15,4 15,2 8 4 ENE 1015,5 10 -
01.06.2020 07:00:00 14,0 14,0 8 4 E - 10 -
01.06.2020 06:00:00 13,0 13,0 8 4 E - 10 -
01.06.2020 05:00:00 12,4 12,4 9 5 ENE 1014,8 10 0,0
01.06.2020 04:00:00 12,0 12,0 8 4 E - 10 -
01.06.2020 03:00:00 12,0 12,0 8 4 E - 10 -
01.06.2020 02:00:00 12,4 12,0 8 4 ENE 1015,6 10 -
01.06.2020 01:00:00 13,0 12,0 11 6 ENE - 10 -
01.06.2020 00:00:00 14,0 12,0 8 4 E - 10 -
31.05.2020 23:00:00 15,6 12,6 4 2 - 1015,6 10 0,0
31.05.2020 22:00:00 16,0 14,0 11 6 NE - 10 -
31.05.2020 21:00:00 18,0 13,0 13 7 O - 10 -
31.05.2020 20:00:00 19,2 13,3 15 8 O 1014,4 10 -
31.05.2020 19:00:00 21,0 13,0 18 10 OSO - 10 -
31.05.2020 18:00:00 21,0 14,0 22 12 O - 10 -
31.05.2020 17:00:00 22,0 13,3 24 13 O 1014,1 10 0,0
31.05.2020 16:00:00 23,0 13,0 21 11 OSO - 10 -
31.05.2020 15:00:00 23,0 13,0 18 10 OSO - 10 -
31.05.2020 14:00:00 22,8 13,0 22 12 OSO 1014,4 10 -
31.05.2020 13:00:00 22,0 14,0 18 10 OSO - 10 -
31.05.2020 12:00:00 22,0 13,0 16 9 OSO - 10 -
31.05.2020 11:00:00 21,9 14,0 13 7 OSO 1014,6 10 0,0
31.05.2020 10:00:00 21,0 14,0 11 6 SO - 10 -

tt = Temperatura
td = dewpoint
ff = velocità del vento
dd = direzione del vento
ppp = reduced air pressure
vv = visibility
rr = precipitazioni

Stazioni seguenti

WeatherPro
AMSI
MeteoEarth